K3XY-2 Weather Reports


time (UTC)temp
C
wind
direction
speed
KPH
gust
KPH
rain 1hr
cm
rain 24hr
cm
rain mn
cm
humidity
%
barometer
mb
20260504081906 -17 0.0 0.0 0.00 0.00 0.00 1013.8
20260504080905 6 0.0 0.0 0.00 0.00 0.00 1013.9
20260504045905 7 0 0.0 0.0 0.00 0.00 0.00 63 1014.2
20260504044906 7 0 0.0 0.0 0.00 0.00 0.00 63 1014.3
20260504043906 7 0 0.0 0.0 0.00 0.00 0.00 63 1014.2
20260504042905 7 0 0.0 0.0 0.00 0.00 0.00 62 1014.1
20260504041905 7 0 0.0 0.0 0.00 0.00 0.00 62 1013.9
20260504040905 7 0 0.0 0.0 0.00 0.00 0.00 62 1013.8
20260504035905 7 0 0.0 0.0 0.00 0.00 0.00 61 1013.8
20260504034905 7 0 0.0 0.0 0.00 0.00 0.00 61 1013.7
20260504033905 7 0 0.0 0.0 0.00 0.00 0.00 60 1013.7
20260504032906 8 0 0.0 0.0 0.00 0.00 0.00 59 1013.6
20260504031905 8 0 0.0 0.0 0.00 0.00 0.00 59 1013.6
20260504030905 8 0 0.0 0.0 0.00 0.00 0.00 59 1013.6
20260504025905 8 0 0.0 0.0 0.00 0.00 0.00 58 1013.6
20260504024906 8 0 0.0 0.0 0.00 0.00 0.00 58 1013.5
20260504023905 8 0 0.0 0.0 0.00 0.00 0.00 58 1013.6
20260504022905 8 0 0.0 0.0 0.00 0.00 0.00 58 1013.7
20260504021905 8 0 0.0 0.0 0.00 0.00 0.00 57 1013.7
20260504020905 8 0 0.0 0.0 0.00 0.00 0.00 57 1013.6
20260504015905 9 0 0.0 0.0 0.00 0.00 0.00 56 1013.6
20260504014905 9 0 0.0 0.0 0.00 0.00 0.00 55 1013.5
20260504013905 9 0 0.0 0.0 0.00 0.00 0.00 54 1013.4
20260504012906 10 0 0.0 0.0 0.00 0.00 0.00 54 1013.4
20260504011905 10 0 0.0 0.0 0.00 0.00 0.00 52 1013.2
20260504010905 10 0 0.0 0.0 0.00 0.00 0.00 52 1013.2
20260504005905 10 0 0.0 0.0 0.00 0.00 0.00 51 1013.1
20260504004905 11 0 0.0 0.0 0.00 0.00 0.00 50 1013.0
20260504003905 11 0 0.0 0.0 0.00 0.00 0.00 49 1012.8
20260504002905 11 0 0.0 0.0 0.00 0.00 0.00 48 1012.6
20260504001905 12 0 0.0 0.0 0.00 0.00 0.00 47 1012.4
20260504000905 12 0 0.0 0.0 0.00 0.00 0.00 47 1012.3
20260503235905 12 0 0.0 0.0 0.00 0.00 0.00 46 1012.2
20260503234905 12 0 0.0 0.0 0.00 0.00 0.00 47 1012.1
20260503233905 13 0 0.0 0.0 0.00 0.00 0.00 44 1012.0
20260503232905 13 0 0.0 0.0 0.00 0.00 0.00 43 1011.9
20260503231905 13 0 0.0 0.0 0.00 0.00 0.00 41 1011.9
20260503230905 13 0 0.0 0.0 0.00 0.00 0.00 40 1011.9
20260503225905 14 0 0.0 0.0 0.00 0.00 0.00 41 1011.7
20260503224905 14 0 0.0 0.0 0.00 0.00 0.00 41 1011.6
20260503223905 15 0 0.0 0.0 0.00 0.00 0.00 40 1011.6
20260503222905 15 0 0.0 0.0 0.00 0.00 0.00 38 1011.6
20260503221904 15 0 0.0 0.0 0.00 0.00 0.00 37 1011.6
20260503220905 15 0 0.0 0.0 0.00 0.00 0.00 40 1011.7
20260503215905 15 0 0.0 0.0 0.00 0.00 0.00 37 1011.6
20260503214905 15 0 0.0 0.0 0.00 0.00 0.00 36 1011.6
20260503213904 15 0 0.0 0.0 0.00 0.00 0.00 36 1011.6
20260503212905 15 0 0.0 0.0 0.00 0.00 0.00 37 1011.7
20260503211905 15 0 0.0 0.0 0.00 0.00 0.00 37 1011.6
20260503210906 15 0 0.0 0.0 0.00 0.00 0.00 37 1011.6
20260503205904 15 0 0.0 0.0 0.00 0.00 0.00 35 1011.5
20260503204905 15 0 0.0 0.0 0.00 0.00 0.00 38 1011.5
20260503203905 15 0 0.0 0.0 0.00 0.00 0.00 36 1011.5
20260503202905 15 0 0.0 0.0 0.00 0.00 0.00 39 1011.7
20260503201904 15 0 0.0 0.0 0.00 0.00 0.00 40 1011.8
20260503200905 15 0 0.0 0.0 0.00 0.00 0.00 37 1011.8
20260503195905 15 0 0.0 0.0 0.00 0.00 0.00 42 1012.0
20260503194905 15 0 0.0 0.0 0.00 0.00 0.00 43 1012.1
20260503193904 14 0 0.0 0.0 0.00 0.00 0.00 40 1012.2
20260503192905 15 0 0.0 0.0 0.00 0.00 0.00 38 1012.2
20260503191905 13 0 0.0 0.0 0.00 0.00 0.00 41 1012.3
20260503190905 13 0 0.0 0.0 0.00 0.00 0.00 37 1012.5
20260503185904 14 0 0.0 0.0 0.00 0.00 0.00 38 1012.9
20260503184905 14 0 0.0 0.0 0.00 0.00 0.00 39 1012.9
20260503183905 13 0 0.0 0.0 0.00 0.00 0.00 40 1013.1
20260503182904 14 0 0.0 0.0 0.00 0.00 0.00 40 1013.0
20260503181904 14 0 0.0 0.0 0.00 0.00 0.00 44 1013.0
20260503180905 13 0 0.0 0.0 0.00 0.00 0.00 41 1013.2
20260503175905 13 0 0.0 0.0 0.00 0.00 0.00 37 1013.2
20260503174904 14 0 0.0 0.0 0.00 0.00 0.00 42 1013.1
20260503173905 13 0 0.0 0.0 0.00 0.00 0.00 39 1013.2
20260503172905 12 0 0.0 0.0 0.00 0.00 0.00 38 1013.3
20260503171904 12 0 0.0 0.0 0.00 0.00 0.00 38 1013.5
20260503170904 12 0 0.0 0.0 0.00 0.00 0.00 42 1013.5
20260503150904 11 0 0.0 0.0 0.00 0.00 0.00 48 1014.2